Weather History for Lancaster, OH

Change the Weather History Date:

Sunday, August 18, 2013

  Actual Average Record
Temperature  
Mean Temperature 62 °F -  
Max Temperature 72 °F 83 °F 96 °F (1988)
Min Temperature 53 °F 59 °F 45 °F (1976)
Degree Days  
Heating Degree Days 2    
Growing Degree Days 12 (Base 50)    
Moisture  
Dew Point 61 °F    
Average Humidity 90    
Maximum Humidity 100    
Minimum Humidity 76    
Precipitation  
Precipitation 0.00 in - - ()
Sea Level Pressure  
Sea Level Pressure 30.17 in    
Wind  
Wind Speed 2 mph (ESE)    
Max Wind Speed 7 mph    
Max Gust Speed -    
Visibility 7 miles    
Events Fog    
Averages and records for this station are not official NWS values.
T = Trace of Precipitation, MM = Missing Value Source: NWS Daily Summary

Daily Weather History Graph

Daily Weather History Graph

Search for Another Location

Airport:

Trip Planner

Search our weather history database for the weather conditions in past years. The results will help you decide how hot, cold, wet, or windy it might be!

Date:

Astronomy

Aug. 18, 2013 Rise Set
Actual Time 6:45 AM EDT 8:22 PM EDT
Civil Twilight 6:17 AM EDT 8:50 PM EDT
Nautical Twilight 5:42 AM EDT 9:25 PM EDT
Astronomical Twilight 5:05 AM EDT 10:01 PM EDT
Moon 6:27 PM EDT (8/18) 3:54 AM EDT (8/18)
Length of Visible Light 14h 33m
Length of Day
13h 36m
Waxing Gibbous, 92% of the Moon is Illuminated
Aug 18
Waxing Gibbous
Aug 20
Full
Aug 28
Last Quarter
Sep 5
New
Sep 12
First Quarter

Hourly Weather History & Observations

Time (EDT) Temp. Dew Point Humidity Pressure Visibility Wind Dir Wind Speed Gust Speed Precip Events Conditions
12:53 AM 55.0 °F 53.1 °F 93% 30.17 in 5.0 mi Calm Calm - N/A   Clear
1:20 AM 53.6 °F 53.6 °F 100% 30.19 in 2.5 mi Calm Calm - N/A   Clear
1:53 AM 55.0 °F 53.1 °F 93% 30.17 in 6.0 mi Calm Calm - N/A   Clear
2:53 AM 57.0 °F 55.0 °F 93% 30.16 in 8.0 mi Calm Calm - N/A   Clear
3:53 AM 57.0 °F 55.0 °F 93% 30.16 in 6.0 mi Calm Calm - N/A   Clear
4:53 AM 57.9 °F 57.0 °F 97% 30.15 in 5.0 mi Calm Calm - N/A   Scattered Clouds
5:53 AM 57.9 °F 57.0 °F 97% 30.16 in 5.0 mi Calm Calm - N/A   Partly Cloudy
6:53 AM 59.0 °F 57.9 °F 96% 30.17 in 4.0 mi East 3.5 mph - N/A   Scattered Clouds
7:10 AM 59.0 °F 57.2 °F 94% 30.18 in 2.5 mi Calm Calm - N/A   Clear
7:20 AM 59.0 °F 57.2 °F 94% 30.18 in 3.0 mi Calm Calm - N/A   Clear
7:53 AM 61.0 °F 59.0 °F 93% 30.18 in 4.0 mi Calm Calm - N/A   Clear
8:53 AM 64.0 °F 61.0 °F 90% 30.20 in 7.0 mi NNW 3.5 mph - N/A   Scattered Clouds
9:53 AM 64.9 °F 62.1 °F 90% 30.19 in 8.0 mi ESE 4.6 mph - N/A   Scattered Clouds
10:48 AM 68.0 °F 62.6 °F 83% 30.22 in 10.0 mi South 4.6 mph - 0.00 in   Mostly Cloudy
10:53 AM 68.0 °F 63.0 °F 84% 30.21 in 10.0 mi SSE 5.8 mph - 0.00 in   Mostly Cloudy
11:53 AM 69.1 °F 64.0 °F 84% 30.21 in 10.0 mi Calm Calm - N/A   Overcast
12:53 PM 70.0 °F 64.0 °F 81% 30.19 in 10.0 mi East 3.5 mph - N/A   Overcast
1:53 PM 72.0 °F 64.0 °F 76% 30.19 in 10.0 mi ESE 5.8 mph - N/A   Overcast
2:53 PM 71.1 °F 64.0 °F 78% 30.18 in 10.0 mi SE 3.5 mph - N/A   Overcast
3:53 PM 70.0 °F 64.0 °F 81% 30.17 in 10.0 mi East 4.6 mph - N/A   Overcast
4:53 PM 69.1 °F 64.9 °F 87% 30.16 in 10.0 mi ESE 4.6 mph - N/A   Overcast
5:09 PM 69.8 °F 64.4 °F 83% 30.17 in 10.0 mi SE 6.9 mph - N/A   Overcast
5:36 PM 69.8 °F 64.4 °F 83% 30.17 in 10.0 mi ESE 5.8 mph - N/A   Overcast
5:53 PM 70.0 °F 64.9 °F 84% 30.16 in 10.0 mi ESE 5.8 mph - N/A   Overcast
6:08 PM 69.8 °F 64.4 °F 83% 30.16 in 10.0 mi ESE 5.8 mph - N/A   Overcast
6:53 PM 70.0 °F 64.9 °F 84% 30.14 in 10.0 mi East 6.9 mph - N/A   Scattered Clouds
7:53 PM 69.1 °F 64.9 °F 87% 30.14 in 10.0 mi ESE 3.5 mph - N/A   Mostly Cloudy
8:13 PM 69.8 °F 64.4 °F 83% 30.15 in 10.0 mi SSE 3.5 mph - N/A   Overcast
8:41 PM 68.0 °F 64.4 °F 88% 30.15 in 10.0 mi SE 3.5 mph - N/A   Overcast
8:53 PM 66.9 °F 64.0 °F 90% 30.14 in 10.0 mi East 3.5 mph - N/A   Overcast
9:53 PM 64.0 °F 62.1 °F 93% 30.15 in 10.0 mi Calm Calm - N/A   Partly Cloudy
10:44 PM 62.6 °F 60.8 °F 94% 30.17 in 5.0 mi Calm Calm - N/A   Mostly Cloudy
10:51 PM 60.8 °F 60.8 °F 100% 30.17 in 2.0 mi Calm Calm - N/A   Mostly Cloudy
10:53 PM 62.1 °F 60.1 °F 93% 30.16 in 1.5 mi Calm Calm - N/A   Mostly Cloudy
11:00 PM 60.8 °F 60.8 °F 100% 30.17 in 0.8 mi Calm Calm - N/A   Mist
11:16 PM 60.8 °F 59.0 °F 94% 30.17 in 0.2 mi Calm Calm - N/A Fog Fog
11:25 PM 60.8 °F 60.8 °F 100% 30.17 in 0.2 mi Calm Calm - N/A Fog Fog
11:53 PM 59.0 °F 57.9 °F 96% 30.16 in 0.2 mi Calm Calm - N/A Fog Fog